Home   Weather   Sacramento   Past weeks

Flag for USA Past Weather in Sacramento, California, USA — Yesterday and Last 2 Weeks

Now
59 °F

Clear.


Feels Like: 58 °F
Forecast: 55 / 84 °F
Wind: 8 mph from South

Location: Sacramento Executive Airport

Current Time: Aug 21, 2018 at 1:09:13 am

Latest Report: Aug 20, 2018 at 11:53 pm


Visibility: 10 mi

Pressure: 29.84 "Hg

Humidity: 81%

Dew Point: 53 °F

Location of SacramentoLocation

Past Weather in Sacramento — Graph

°F

Sacramento Temperature Yesterday

Maximum temperature yesterday: 88 °F (at 3:53 pm)
Minimum temperature yesterday: 58 °F (at 5:53 am)
Average temperature yesterday: 71 °F

High & Low Weather Summary for the Past Weeks

 TemperatureHumidityPressure
High99 °F (Aug 9, 4:53 pm)93% (Aug 15, 5:53 am)30.04 "Hg (Aug 15, 5:53 am)
Low58 °F (Aug 6, 5:53 am)15% (Aug 18, 4:53 pm)29.78 "Hg (Aug 7, 5:53 pm)
Average74 °F53%29.89 "Hg
* Reported Aug 5 9:53 pm — Aug 20 9:53 pm, Sacramento. Weather by CustomWeather, © 2018

Note: Actual official high and low records may vary slightly from our data, if they occured in-between our weather recording intervals... More about our weather records

Advertising

Sacramento Weather History for the Previous 24 Hours

Scroll right to see more
 ConditionsComfort  
Time TempWeatherWind HumidityBarometerVisibility
9:53 pm
Mon, Aug 20
63 °FClear.9 mph73%29.83 "Hg10 mi
8:53 pm66 °FClear.9 mph68%29.81 "Hg10 mi
7:53 pm70 °FClear.7 mph57%29.80 "Hg9 mi
6:53 pm77 °FSunny.7 mph44%29.78 "Hg9 mi
5:53 pm84 °FSunny.9 mph36%29.79 "Hg10 mi
4:53 pm87 °FSunny.10 mph32%29.79 "Hg10 mi
3:53 pm88 °FSunny.10 mph30%29.79 "Hg10 mi
2:53 pm86 °FSunny.9 mph33%29.81 "Hg9 mi
1:53 pm84 °FSunny.7 mph36%29.83 "Hg9 mi
12:53 pm81 °FSunny.10 mph39%29.84 "Hg9 mi
11:53 am77 °FSunny.9 mph45%29.86 "Hg9 mi
10:53 am74 °FSunny.5 mph50%29.87 "Hg8 mi
9:53 am69 °FSunny.3 mph63%29.87 "Hg7 mi
8:53 am64 °FSunny.5 mph70%29.87 "Hg7 mi
7:53 am60 °FSunny.5 mph80%29.85 "Hg7 mi
6:53 am58 °FFog.5 mph87%29.84 "Hg6 mi
5:53 am58 °FClear.6 mph87%29.82 "Hg7 mi
4:53 am59 °FClear.5 mph84%29.81 "Hg8 mi
3:53 am60 °FClear.7 mph80%29.81 "Hg7 mi
2:53 am61 °FClear.9 mph75%29.81 "Hg7 mi
1:53 am62 °FClear.5 mph70%29.80 "Hg8 mi
Weather by CustomWeather, © 2018

See weather overview